TimeChST,TemperatureF,Dew PointF,Humidity,Sea Level PressureIn,VisibilityMPH,Wind Direction,Wind SpeedMPH,Gust SpeedMPH,PrecipitationIn,Events,Conditions,WindDirDegrees,DateUTC
12:06 AM,78.8,75.2,89,29.62,10.0,SSW,8.1,-,0.00,,Overcast,210,2012-10-02 14:06:00
12:17 AM,80.6,75.2,84,29.62,9.0,SSW,9.2,-,0.00,Rain,Light Rain,200,2012-10-02 14:17:00
12:26 AM,80.6,75.2,84,29.62,10.0,SSW,8.1,-,0.00,,Overcast,200,2012-10-02 14:26:00
12:54 AM,80.1,75.0,85,29.68,10.0,South,11.5,18.4,0.00,,Overcast,190,2012-10-02 14:54:00
1:54 AM,81.0,77.0,88,29.67,10.0,South,12.7,-,0.00,Rain,Light Rain,180,2012-10-02 15:54:00
2:54 AM,81.0,75.0,82,29.66,10.0,SSW,13.8,19.6,0.00,,Mostly Cloudy,200,2012-10-02 16:54:00
3:54 AM,80.1,75.9,87,29.66,10.0,South,5.8,-,0.00,,Scattered Clouds,190,2012-10-02 17:54:00
4:54 AM,81.0,75.9,85,29.67,10.0,South,6.9,-,N/A,,Scattered Clouds,190,2012-10-02 18:54:00
5:46 AM,82.4,77.0,84,29.61,10.0,SSW,10.4,-,N/A,,Mostly Cloudy,200,2012-10-02 19:46:00
5:54 AM,80.1,75.0,85,29.68,8.0,SSW,8.1,-,0.01,Rain,Light Rain,200,2012-10-02 19:54:00
6:00 AM,78.8,75.2,89,29.62,5.0,South,10.4,-,0.00,Rain,Rain,180,2012-10-02 20:00:00
6:54 AM,80.1,75.9,87,29.71,10.0,South,5.8,-,0.13,,Overcast,190,2012-10-02 20:54:00
7:54 AM,81.0,77.0,88,29.72,10.0,South,5.8,-,N/A,,Overcast,180,2012-10-02 21:54:00
8:54 AM,82.0,75.9,82,29.73,10.0,SSW,9.2,-,N/A,,Mostly Cloudy,210,2012-10-02 22:54:00
9:54 AM,84.9,77.0,77,29.73,10.0,SSW,9.2,-,N/A,,Scattered Clouds,200,2012-10-02 23:54:00
10:54 AM,86.0,77.0,74,29.70,10.0,South,9.2,-,N/A,,Scattered Clouds,180,2012-10-03 00:54:00
11:54 AM,86.0,78.1,77,29.69,10.0,South,8.1,-,N/A,,Scattered Clouds,180,2012-10-03 01:54:00
12:54 PM,86.0,77.0,74,29.67,10.0,South,11.5,-,N/A,,Partly Cloudy,170,2012-10-03 02:54:00
1:54 PM,87.1,78.1,74,29.65,10.0,South,10.4,-,N/A,,Clear,170,2012-10-03 03:54:00
2:54 PM,86.0,78.1,77,29.65,10.0,South,9.2,-,N/A,,Mostly Cloudy,180,2012-10-03 04:54:00
3:06 PM,86.0,75.2,70,29.58,10.0,South,10.4,-,N/A,,Mostly Cloudy,180,2012-10-03 05:06:00
3:28 PM,80.6,75.2,84,29.59,2.0,South,4.6,-,0.04,Rain,Light Rain,180,2012-10-03 05:28:00
3:36 PM,80.6,75.2,84,29.60,8.0,SW,11.5,-,0.04,,Overcast,230,2012-10-03 05:36:00
3:54 PM,82.9,77.0,82,29.66,8.0,SSW,4.6,-,0.04,,Mostly Cloudy,210,2012-10-03 05:54:00
4:07 PM,82.4,75.2,79,29.60,10.0,SW,3.5,-,N/A,,Mostly Cloudy,220,2012-10-03 06:07:00
4:40 PM,84.2,77.0,79,29.61,10.0,South,9.2,-,N/A,,Scattered Clouds,180,2012-10-03 06:40:00
4:54 PM,84.0,77.0,79,29.68,10.0,South,10.4,-,N/A,,Clear,180,2012-10-03 06:54:00
5:54 PM,82.9,77.0,82,29.70,10.0,South,9.2,-,N/A,,Scattered Clouds,180,2012-10-03 07:54:00
6:54 PM,82.0,75.0,79,29.71,10.0,South,9.2,-,N/A,,Scattered Clouds,190,2012-10-03 08:54:00
7:54 PM,82.9,77.0,82,29.73,10.0,South,8.1,-,N/A,,Partly Cloudy,190,2012-10-03 09:54:00
8:54 PM,82.0,75.0,79,29.74,10.0,South,4.6,-,N/A,,Scattered Clouds,170,2012-10-03 10:54:00
9:54 PM,82.0,73.9,76,29.74,10.0,Calm,Calm,-,N/A,,Partly Cloudy,0,2012-10-03 11:54:00
10:54 PM,82.9,75.9,79,29.74,10.0,South,8.1,-,N/A,,Scattered Clouds,170,2012-10-03 12:54:00
11:54 PM,82.0,75.0,79,29.74,10.0,South,8.1,-,N/A,,Scattered Clouds,170,2012-10-03 13:54:00